User: anonymous   Login
Location: Gloden
(48.4833°N, 15.3167°E)
Time: 11:39:34
(UTC+00:00)
Language:

CUTE-I - Orbit

View from above orbital plane
View from above orbital plane
View from above satellite
View from above satellite

Ground track
Ground track

The orbit data is extracted from the following two-line orbital elements,

1 27844U 03031E   23032.79766281  .00000344  00000-0  17317-3 0  9991
2 27844  98.6799  42.0374 0010329 152.5682 207.6043 14.22609038 16519
Epoch (UTC): 01 February 2023 19:08:38
Eccentricity: 0.0010329
inclination: 98.6799°
perigee height: 809 km
apogee height: 824 km
right ascension of ascending node: 42.0374°
argument of perigee: 152.5682°
revolutions per day: 14.22609038
mean anomaly at epoch: 207.6043°
orbit number at epoch: 1651

The dashed part of the orbit path shows where the satellite is in the earth's shadow,  

DLR